When you browse on this site, cookies collect data to enhance your experience and personalize the content and advertising you see.
Visit our Privacy Policy to learn more. By continuing to use the site, you agree to this use of cookies and data.
  • In United Kingdom
  • List of Countries
  • For 7 days
  • Water Temperature
  • Weather Map
  • Weather Widgets
  • user-avatar
    Login

    Hourly Weather Bremen

    Today, 15 December, Sunday

    Time Temperature Precipitation Wind Pressure Humidity
    00:00 +2°C° 0 mm 6 mps 745 mmHg 81%
    01:00 +1°C° 0 mm 6 mps 746 mmHg 80%
    02:00 +1°C° 0 mm 5 mps 745 mmHg 82%
    03:00 +1°C° 0 mm 5 mps 745 mmHg 85%
    04:00 +1°C° 0 mm 5 mps 744 mmHg 87%
    05:00 +2°C° 0.1 mm 6 mps 743 mmHg 87%
    06:00 +3°C° 0.1 mm 7 mps 742 mmHg 87%
    07:00 +4°C° 0.1 mm 8 mps 741 mmHg 86%
    08:00 +5°C° 0.4 mm 9 mps 741 mmHg 82%
    09:00 +5°C° 0.4 mm 10 mps 742 mmHg 77%
    10:00 +6°C° 0.4 mm 11 mps 742 mmHg 73%
    11:00 +6°C° 0 mm 10 mps 743 mmHg 70%
    12:00 +6°C° 0 mm 10 mps 744 mmHg 68%
    13:00 +5°C° 0 mm 9 mps 746 mmHg 65%
    14:00 +5°C° 0 mm 9 mps 746 mmHg 67%
    15:00 +4°C° 0 mm 8 mps 747 mmHg 68%
    16:00 +4°C° 0 mm 7 mps 748 mmHg 69%
    17:00 +4°C° 0.2 mm 7 mps 749 mmHg 73%
    18:00 +4°C° 0.2 mm 7 mps 749 mmHg 77%
    19:00 +4°C° 0.2 mm 7 mps 750 mmHg 81%
    20:00 +4°C° 0 mm 6 mps 751 mmHg 81%
    21:00 +3°C° 0 mm 6 mps 751 mmHg 82%
    22:00 +3°C° 0 mm 6 mps 752 mmHg 83%
    23:00 +3°C° 0 mm 6 mps 753 mmHg 83%

    Tomorrow, 16 December, Monday

    Time Temperature Precipitation Wind Pressure Humidity
    00:00 +3°C° 0 mm 5 mps 753 mmHg 83%
    01:00 +2°C° 0 mm 5 mps 753 mmHg 84%
    02:00 +2°C° 0 mm 5 mps 753 mmHg 84%
    03:00 +3°C° 0 mm 4 mps 753 mmHg 84%
    04:00 +3°C° 0 mm 4 mps 753 mmHg 84%
    05:00 +3°C° 0 mm 4 mps 753 mmHg 86%
    06:00 +3°C° 0 mm 4 mps 753 mmHg 87%
    07:00 +3°C° 0 mm 4 mps 753 mmHg 88%
    08:00 +4°C° 0 mm 4 mps 753 mmHg 87%
    09:00 +4°C° 0 mm 4 mps 753 mmHg 86%
    10:00 +4°C° 0 mm 4 mps 753 mmHg 86%
    11:00 +5°C° 0 mm 4 mps 753 mmHg 85%
    12:00 +6°C° 0 mm 4 mps 753 mmHg 85%
    13:00 +7°C° 0 mm 4 mps 753 mmHg 85%
    14:00 +7°C° 0.1 mm 4 mps 753 mmHg 88%
    15:00 +7°C° 0.1 mm 3 mps 753 mmHg 91%
    16:00 +7°C° 0.1 mm 3 mps 753 mmHg 94%
    17:00 +7°C° 0 mm 3 mps 753 mmHg 94%
    18:00 +7°C° 0 mm 2 mps 752 mmHg 95%
    19:00 +6°C° 0 mm 2 mps 752 mmHg 95%
    20:00 +7°C° 0.2 mm 2 mps 752 mmHg 95%
    21:00 +7°C° 0.2 mm 2 mps 752 mmHg 95%
    22:00 +7°C° 0.2 mm 2 mps 752 mmHg 96%
    23:00 +7°C° 0.2 mm 2 mps 752 mmHg 95%

    Day after tomorrow, 17 December, Tuesday

    Time Temperature Precipitation Wind Pressure Humidity
    00:00 +7°C° 0.2 mm 2 mps 752 mmHg 95%
    01:00 +7°C° 0.2 mm 2 mps 751 mmHg 95%
    02:00 +7°C° 0 mm 2 mps 751 mmHg 93%
    03:00 +6°C° 0 mm 2 mps 751 mmHg 92%
    04:00 +6°C° 0 mm 2 mps 751 mmHg 90%
    05:00 +7°C° 0 mm 2 mps 751 mmHg 89%
    06:00 +7°C° 0 mm 2 mps 751 mmHg 88%
    07:00 +7°C° 0 mm 2 mps 751 mmHg 87%
    08:00 +7°C° 0 mm 2 mps 751 mmHg 86%
    09:00 +8°C° 0 mm 3 mps 751 mmHg 84%
    10:00 +8°C° 0 mm 3 mps 751 mmHg 83%
    11:00 +9°C° 0 mm 3 mps 751 mmHg 79%
    12:00 +10°C° 0 mm 4 mps 751 mmHg 75%
    13:00 +10°C° 0 mm 5 mps 750 mmHg 71%
    14:00 +11°C° 0 mm 4 mps 751 mmHg 74%
    15:00 +10°C° 0 mm 4 mps 751 mmHg 77%
    16:00 +10°C° 0 mm 4 mps 751 mmHg 80%
    17:00 +8°C° 0 mm 4 mps 751 mmHg 81%
    18:00 +8°C° 0 mm 4 mps 752 mmHg 83%
    19:00 +8°C° 0 mm 4 mps 752 mmHg 85%
    20:00 +10°C° 0 mm 4 mps 752 mmHg 84%
    21:00 +9°C° 0 mm 5 mps 752 mmHg 83%
    22:00 +9°C° 0 mm 5 mps 752 mmHg 82%
    23:00 +9°C° 0 mm 5 mps 752 mmHg 81%

    18 December, Wednesday

    Time Temperature Precipitation Wind Pressure Humidity
    00:00 +9°C° 0 mm 6 mps 752 mmHg 79%
    01:00 +9°C° 0 mm 6 mps 752 mmHg 77%
    02:00 +9°C° 0 mm 6 mps 752 mmHg 79%
    03:00 +9°C° 0 mm 6 mps 752 mmHg 81%
    04:00 +9°C° 0 mm 6 mps 752 mmHg 83%
    05:00 +9°C° 0.1 mm 6 mps 753 mmHg 85%
    06:00 +9°C° 0.1 mm 6 mps 754 mmHg 86%
    07:00 +8°C° 0.1 mm 5 mps 754 mmHg 88%
    08:00 +8°C° 0 mm 4 mps 755 mmHg 88%
    09:00 +7°C° 0 mm 4 mps 756 mmHg 89%
    10:00 +7°C° 0 mm 3 mps 757 mmHg 89%
    11:00 +8°C° 0 mm 2 mps 758 mmHg 86%
    12:00 +8°C° 0 mm 2 mps 758 mmHg 82%
    13:00 +8°C° 0 mm 2 mps 758 mmHg 79%
    14:00 +7°C° 0 mm 2 mps 758 mmHg 82%
    15:00 +8°C° 0 mm 1 mps 758 mmHg 84%
    16:00 +7°C° 0 mm 1 mps 759 mmHg 87%
    17:00 +7°C° 0 mm 1 mps 759 mmHg 88%
    18:00 +5°C° 0 mm 2 mps 759 mmHg 89%
    19:00 +5°C° 0 mm 2 mps 759 mmHg 90%
    20:00 +5°C° 0 mm 2 mps 759 mmHg 90%
    21:00 +4°C° 0 mm 3 mps 759 mmHg 89%
    22:00 +4°C° 0 mm 3 mps 759 mmHg 89%
    23:00 +4°C° 0.3 mm 3 mps 758 mmHg 90%

    19 December, Thursday

    Time Temperature Precipitation Wind Pressure Humidity
    00:00 +4°C° 0.3 mm 4 mps 758 mmHg 90%
    01:00 +5°C° 0.3 mm 4 mps 758 mmHg 91%
    02:00 +5°C° 0.2 mm 4 mps 757 mmHg 92%
    03:00 +5°C° 0.2 mm 4 mps 757 mmHg 92%
    04:00 +5°C° 0.2 mm 4 mps 757 mmHg 93%
    05:00 +5°C° 0.1 mm 4 mps 757 mmHg 93%
    06:00 +5°C° 0.1 mm 4 mps 756 mmHg 93%
    07:00 +6°C° 0.1 mm 4 mps 756 mmHg 94%
    08:00 +6°C° 0 mm 4 mps 756 mmHg 93%
    09:00 +6°C° 0 mm 5 mps 756 mmHg 93%
    10:00 +6°C° 0 mm 5 mps 756 mmHg 92%
    11:00 +6°C° 0 mm 5 mps 755 mmHg 90%
    12:00 +7°C° 0 mm 6 mps 755 mmHg 88%
    13:00 +7°C° 0 mm 6 mps 755 mmHg 86%
    14:00 +7°C° 0 mm 5 mps 754 mmHg 87%
    15:00 +6°C° 0 mm 5 mps 754 mmHg 89%
    16:00 +6°C° 0 mm 5 mps 754 mmHg 91%
    17:00 +5°C° 0 mm 5 mps 754 mmHg 91%
    18:00 +5°C° 0 mm 5 mps 754 mmHg 92%
    19:00 +5°C° 0 mm 5 mps 754 mmHg 93%
    20:00 +5°C° 0 mm 5 mps 753 mmHg 92%
    21:00 +5°C° 0 mm 6 mps 753 mmHg 92%
    22:00 +5°C° 0 mm 6 mps 753 mmHg 92%
    23:00 +5°C° 0 mm 6 mps 752 mmHg 91%

    20 December, Friday

    Time Temperature Precipitation Wind Pressure Humidity
    00:00 +4°C° 0 mm 6 mps 752 mmHg 91%
    01:00 +4°C° 0 mm 6 mps 751 mmHg 91%
    02:00 +4°C° 0 mm 6 mps 751 mmHg 91%
    03:00 +4°C° 0 mm 6 mps 750 mmHg 91%
    04:00 +4°C° 0 mm 6 mps 750 mmHg 91%
    05:00 +4°C° 0 mm 6 mps 750 mmHg 91%
    06:00 +5°C° 0 mm 5 mps 749 mmHg 91%
    07:00 +5°C° 0 mm 5 mps 749 mmHg 90%
    08:00 +5°C° 0 mm 5 mps 748 mmHg 90%
    09:00 +6°C° 0 mm 5 mps 748 mmHg 90%
    10:00 +5°C° 0 mm 6 mps 748 mmHg 90%
    11:00 +5°C° 0 mm 6 mps 747 mmHg 89%
    12:00 +5°C° 0 mm 6 mps 747 mmHg 88%
    13:00 +7°C° 0 mm 6 mps 746 mmHg 86%
    14:00 +7°C° 0 mm 5 mps 745 mmHg 87%
    15:00 +7°C° 0 mm 5 mps 745 mmHg 87%
    16:00 +7°C° 0 mm 5 mps 744 mmHg 87%
    17:00 +6°C° 0 mm 5 mps 744 mmHg 89%
    18:00 +6°C° 0 mm 5 mps 744 mmHg 90%
    19:00 +6°C° 0 mm 5 mps 744 mmHg 92%
    20:00 +6°C° 0 mm 4 mps 743 mmHg 92%
    21:00 +6°C° 0 mm 4 mps 743 mmHg 91%
    22:00 +6°C° 0 mm 4 mps 743 mmHg 91%
    23:00 +5°C° 0 mm 4 mps 743 mmHg 92%
    Show more